Location: Unspecified
(48.2082°N, 0.0000°E)
Time: 10:54:05
(UTC+00:00)

Vanguard 1 - Pass Details

Date: 04 July 2019
Orbit: 653 x 3830 km, 34.3° (Epoch: 16 July)

Event Time Altitude Azimuth Distance (km) Brightness Sun altitude
Rises 22:19:22 0° 219° (SW) 7,438 14.3 -15.1°
Reaches altitude 10° 22:24:38 10° 212° (SSW) 6,668 14.0 -15.5°
Maximum altitude 22:44:41 40° 153° (SSE) 4,794 13.0 -16.7°
Drops below altitude 10° 23:02:18 10° 93° (E) 5,950 13.9 -17.6°
Sets 23:06:35 0° 86° (E) 6,609 14.2 -17.8°
